BEL8MN EKCH-EBBR

Flight info

Callsign BEL8MN
Flight time N/A
Altitude 38000
Route NEXEN T503 GIMRU DCT MICOS DCT MAWEQ DCT ABAMI Z717 NEREL T855 BATTY
Aircraft A320/M-SDE3FGHIRWY/LB1

Departure

Time 2026-05-04 15:23
Airport Copenhagen Kastrup Airport (EKCH)

Arrival

Time N/A
Airport Brussels Airport (EBBR)
Time Latitude Longitude Altitude Speed Heading
2026-05-04 15:07 55.62745 12.64041 24 ft 0 kts 33°
2026-05-04 15:14 55.62744 12.64040 24 ft 2 kts 33°
2026-05-04 15:14 55.62723 12.64016 26 ft 4 kts 33°
2026-05-04 15:15 55.62706 12.63995 24 ft 4 kts 26°
2026-05-04 15:15 55.62684 12.63986 24 ft 4 kts 327°
2026-05-04 15:15 55.62670 12.64013 25 ft 1 kts 303°
2026-05-04 15:16 55.62670 12.64014 24 ft 0 kts 303°
2026-05-04 15:18 55.62673 12.64007 25 ft 3 kts 303°
2026-05-04 15:18 55.62696 12.63944 24 ft 9 kts 302°
2026-05-04 15:18 55.62688 12.63854 25 ft 10 kts 220°
2026-05-04 15:19 55.62573 12.64076 26 ft 19 kts 123°
2026-05-04 15:19 55.62491 12.64294 25 ft 23 kts 127°
2026-05-04 15:19 55.62353 12.64430 24 ft 9 kts 195°
2026-05-04 15:20 55.62278 12.64394 22 ft 16 kts 194°
2026-05-04 15:20 55.62161 12.64313 25 ft 19 kts 204°
2026-05-04 15:20 55.62041 12.64210 24 ft 20 kts 206°
2026-05-04 15:20 55.61934 12.64120 24 ft 11 kts 205°
2026-05-04 15:21 55.61861 12.64076 24 ft 11 kts 188°
2026-05-04 15:21 55.61790 12.64077 24 ft 9 kts 176°
2026-05-04 15:21 55.61689 12.64089 28 ft 5 kts 176°
2026-05-04 15:22 55.61654 12.64086 27 ft 5 kts 190°
2026-05-04 15:22 55.61609 12.64042 27 ft 15 kts 218°
2026-05-04 15:22 55.60683 12.62611 28 ft 150 kts 221°
2026-05-04 15:23 55.59845 12.61298 439 ft 165 kts 224°
2026-05-04 15:23 55.58987 12.59951 1215 ft 165 kts 225°
2026-05-04 15:23 55.58126 12.58617 1988 ft 164 kts 224°
2026-05-04 15:23 55.57267 12.57326 2727 ft 160 kts 225°
2026-05-04 15:24 55.55374 12.54810 3642 ft 190 kts 220°
2026-05-04 15:24 55.52909 12.51786 4415 ft 240 kts 219°
2026-05-04 15:25 55.51482 12.50050 5023 ft 255 kts 219°
2026-05-04 15:25 55.49998 12.48250 5905 ft 261 kts 218°
2026-05-04 15:25 55.48486 12.46422 6838 ft 265 kts 219°
2026-05-04 15:26 55.45422 12.42700 8653 ft 272 kts 219°
2026-05-04 15:26 55.43862 12.40804 9550 ft 273 kts 219°
2026-05-04 15:26 55.40598 12.36830 10642 ft 305 kts 218°
2026-05-04 15:27 55.38827 12.34675 11313 ft 313 kts 218°
2026-05-04 15:27 55.35214 12.30281 12924 ft 318 kts 218°
2026-05-04 15:28 55.31572 12.25860 14450 ft 323 kts 219°
2026-05-04 15:28 55.29718 12.23614 15180 ft 325 kts 219°
2026-05-04 15:28 55.25961 12.19080 16584 ft 330 kts 218°
2026-05-04 15:29 55.24061 12.16793 17263 ft 332 kts 219°
2026-05-04 15:30 55.16386 12.07349 19783 ft 342 kts 220°
2026-05-04 15:30 55.10570 11.99818 21517 ft 351 kts 220°
2026-05-04 15:31 55.06589 11.94719 22582 ft 359 kts 220°
2026-05-04 15:31 55.04565 11.92146 23113 ft 362 kts 220°
2026-05-04 15:32 54.98392 11.84330 24611 ft 370 kts 220°
2026-05-04 15:32 54.94206 11.79032 25512 ft 374 kts 220°
2026-05-04 15:33 54.89967 11.73679 26373 ft 379 kts 220°
2026-05-04 15:34 54.83517 11.65586 27604 ft 384 kts 220°
2026-05-04 15:34 54.81351 11.62867 27990 ft 386 kts 220°
2026-05-04 15:34 54.76983 11.57399 28734 ft 389 kts 220°
2026-05-04 15:35 54.72579 11.51901 29433 ft 392 kts 220°
2026-05-04 15:35 54.70361 11.49140 29773 ft 393 kts 220°
2026-05-04 15:35 54.68138 11.46377 30101 ft 394 kts 220°
2026-05-04 15:36 54.63669 11.40828 30695 ft 397 kts 220°
2026-05-04 15:36 54.61415 11.38036 30954 ft 399 kts 220°
2026-05-04 15:36 54.59150 11.35241 31199 ft 401 kts 220°
2026-05-04 15:37 54.56877 11.32441 31453 ft 403 kts 220°
2026-05-04 15:37 54.54593 11.29633 31738 ft 403 kts 219°
2026-05-04 15:37 54.52340 11.26883 32076 ft 402 kts 219°
2026-05-04 15:37 54.50025 11.24069 32406 ft 402 kts 219°
2026-05-04 15:38 54.47743 11.21303 32740 ft 401 kts 219°
2026-05-04 15:38 54.45467 11.18542 33072 ft 400 kts 219°
2026-05-04 15:38 54.43198 11.15788 33390 ft 399 kts 219°
2026-05-04 15:38 54.40929 11.13042 33704 ft 399 kts 219°
2026-05-04 15:39 54.38663 11.10304 34025 ft 398 kts 219°
2026-05-04 15:39 54.36426 11.07604 34338 ft 398 kts 219°
2026-05-04 15:39 54.31895 11.02148 34866 ft 399 kts 219°
2026-05-04 15:40 54.29624 10.99412 35088 ft 400 kts 219°
2026-05-04 15:40 54.27369 10.96624 35312 ft 400 kts 220°
2026-05-04 15:40 54.25131 10.93792 35543 ft 401 kts 220°
2026-05-04 15:40 54.22896 10.90933 35784 ft 401 kts 220°
2026-05-04 15:41 54.20662 10.88073 35997 ft 402 kts 220°
2026-05-04 15:41 54.18419 10.85220 36198 ft 402 kts 220°
2026-05-04 15:41 54.16167 10.82378 36393 ft 403 kts 220°
2026-05-04 15:41 54.13909 10.79549 36576 ft 404 kts 219°
2026-05-04 15:42 54.11643 10.76721 36767 ft 404 kts 220°
2026-05-04 15:42 54.09379 10.73895 37001 ft 403 kts 219°
2026-05-04 15:42 54.07118 10.71074 37258 ft 401 kts 219°
2026-05-04 15:42 54.04875 10.68277 37514 ft 400 kts 219°
2026-05-04 15:43 54.02631 10.65481 37724 ft 400 kts 219°
2026-05-04 15:43 54.00386 10.62688 37896 ft 400 kts 219°
2026-05-04 15:43 53.98138 10.59894 37961 ft 401 kts 219°
2026-05-04 15:44 53.93636 10.54325 37980 ft 400 kts 219°
2026-05-04 15:44 53.89146 10.48779 37979 ft 399 kts 219°
2026-05-04 15:45 53.84659 10.43250 37979 ft 399 kts 219°
2026-05-04 15:45 53.80925 10.38659 37980 ft 399 kts 219°
2026-05-04 15:46 53.75706 10.32247 37982 ft 399 kts 219°
2026-05-04 15:46 53.71209 10.26739 37983 ft 399 kts 219°
2026-05-04 15:47 53.67435 10.22140 37988 ft 399 kts 219°
2026-05-04 15:47 53.62927 10.16661 37992 ft 399 kts 219°
2026-05-04 15:48 53.58411 10.11190 37997 ft 400 kts 219°
2026-05-04 15:48 53.51638 10.02997 38005 ft 400 kts 219°
2026-05-04 15:49 53.47153 9.97584 38007 ft 400 kts 219°
2026-05-04 15:49 53.42603 9.92118 38005 ft 400 kts 219°
2026-05-04 15:50 53.38107 9.86735 38006 ft 400 kts 219°
2026-05-04 15:50 53.33583 9.81319 38006 ft 399 kts 219°
2026-05-04 15:51 53.29058 9.75923 38006 ft 399 kts 219°
2026-05-04 15:51 53.24531 9.70540 38007 ft 399 kts 218°
2026-05-04 15:52 53.20001 9.65167 38004 ft 399 kts 219°
2026-05-04 15:52 53.15470 9.59806 38004 ft 399 kts 218°
2026-05-04 15:53 53.10936 9.54464 38002 ft 399 kts 218°
2026-05-04 15:53 53.06401 9.49120 38000 ft 399 kts 218°
2026-05-04 15:54 53.01866 9.43798 37998 ft 399 kts 218°
2026-05-04 15:54 52.97333 9.38499 37995 ft 399 kts 218°
2026-05-04 15:55 52.92801 9.33206 37990 ft 398 kts 218°
2026-05-04 15:55 52.88275 9.27925 37987 ft 398 kts 218°
2026-05-04 15:56 52.83744 9.22664 37984 ft 398 kts 218°
2026-05-04 15:56 52.79208 9.17424 37979 ft 397 kts 218°
2026-05-04 15:57 52.74680 9.12188 37965 ft 397 kts 218°
2026-05-04 15:57 52.70156 9.06971 37961 ft 397 kts 218°
2026-05-04 15:58 52.65628 9.01767 37971 ft 397 kts 218°
2026-05-04 15:58 52.61134 8.96611 37963 ft 396 kts 218°
2026-05-04 15:59 52.56615 8.91428 37978 ft 396 kts 218°
2026-05-04 15:59 52.52091 8.86268 37964 ft 396 kts 217°
2026-05-04 16:00 52.47559 8.81135 37972 ft 396 kts 217°
2026-05-04 16:00 52.43036 8.76001 37964 ft 395 kts 217°
2026-05-04 16:01 52.38513 8.70874 37977 ft 395 kts 217°
2026-05-04 16:01 52.33992 8.65770 37978 ft 394 kts 217°
2026-05-04 16:02 52.29471 8.60684 37979 ft 394 kts 217°
2026-05-04 16:03 52.23309 8.51949 37978 ft 391 kts 225°
2026-05-04 16:03 52.19394 8.45791 37977 ft 391 kts 225°
2026-05-04 16:04 52.15470 8.39660 37977 ft 391 kts 225°
2026-05-04 16:04 52.09596 8.30469 37980 ft 390 kts 225°
2026-05-04 16:05 52.05683 8.24364 37982 ft 390 kts 225°
2026-05-04 16:06 51.99809 8.15246 37984 ft 389 kts 225°
2026-05-04 16:07 51.91974 8.03140 37982 ft 389 kts 225°
2026-05-04 16:08 51.84130 7.91064 37980 ft 389 kts 225°
2026-05-04 16:09 51.74343 7.76095 37977 ft 389 kts 225°
2026-05-04 16:10 51.66473 7.64143 37963 ft 389 kts 224°
2026-05-04 16:11 51.58589 7.52231 37961 ft 389 kts 224°
2026-05-04 16:12 51.46716 7.34366 37961 ft 390 kts 224°